[[{"header":{"parameterUnit":"m.s-1","parameterCategory":1,"la1":30.2991,"la2":30.254,"lo1":-89.0895,"lo2":-89.0444,"dy":0.0017,"dx":0.0017,"nx":28,"ny":28,"refTime":"2024-04-18T03:00:00:Z","depth":0,"parameterNumber":2,"parameterNumberName":"U-component_of_WINDS"},"data":[0,0,0,0,0,0,0,0,0,0,0,0,0,0,0,0,0,0,0,0,0,0,0,0,0,0,0,0,0,0,0,0,0,0,0,0,0,0,0,0,0,0,0,0,0,0,0,0,0,0,0,0,0,0,0,0,0,0,-1.6403,-1.6403,0,-1.6416,-1.6416,-1.6416,-1.6415,-1.6415,-1.6415,-1.6414,-1.6426,-1.6427,-1.6427,0,0,0,0,0,0,0,0,0,0,0,0,0,-1.6376,-1.6377,-1.6403,-1.6403,-1.6403,-1.6416,-1.6416,-1.6416,-1.6415,-1.6415,-1.6415,-1.6414,-1.6426,-1.6427,-1.6427,0,0,0,0,0,0,0,0,0,0,0,0,0,-1.6388,-1.6377,-1.6403,-1.6404,-1.6405,-1.6416,-1.6416,-1.6416,-1.6415,-1.6415,-1.6414,-1.6414,-1.6426,-1.6427,-1.6427,-1.6438,0,0,-1.643,-1.643,0,0,0,0,0,0,0,0,-1.6388,-1.6389,-1.6404,-1.6404,-1.6405,-1.6414,-1.6411,-1.6423,-1.6415,-1.6411,-1.6414,-1.6414,-1.6422,-1.6423,-1.6426,-1.6438,-1.6439,-1.643,-1.643,-1.6431,-1.6431,0,0,0,0,0,0,0,-1.6387,-1.6389,-1.6408,-1.6404,-1.6404,-1.6404,-1.6405,-1.6413,-1.6418,-1.6411,-1.6411,-1.6413,-1.6422,-1.6426,-1.6427,-1.6439,-1.643,-1.643,-1.6431,-1.6431,-1.646,-1.646,0,0,0,0,0,0,-1.6386,-1.6388,-1.6408,-1.6408,-1.6395,-1.6405,-1.6406,-1.6411,-1.6418,-1.6419,-1.6413,-1.6413,-1.6424,-1.6426,-1.6427,-1.6439,-1.6431,-1.6431,-1.6432,-1.646,-1.646,-1.646,0,0,0,0,0,0,-1.6385,-1.6388,-1.6407,-1.6398,-1.6401,-1.6405,-1.6411,-1.6411,-1.6415,-1.6419,-1.642,-1.6416,-1.6424,-1.6426,-1.6435,-1.644,-1.6432,-1.6432,-1.6459,-1.646,-1.646,-1.6464,0,0,0,0,0,0,-1.6385,-1.6388,-1.6392,-1.6398,-1.6401,-1.6415,-1.6411,-1.6412,-1.6416,-1.6416,-1.6422,-1.6423,-1.6424,-1.6434,-1.6436,-1.6441,-1.6433,-1.6459,-1.646,-1.646,-1.6464,-1.6465,-1.6466,0,0,0,0,0,-1.6384,-1.6392,-1.6392,-1.6394,-1.6407,-1.6416,-1.6417,-1.6419,-1.6416,-1.642,-1.6424,-1.6422,-1.6439,-1.6435,-1.6437,-1.6442,-1.6459,-1.6459,-1.646,-1.6463,-1.6465,-1.6466,0,0,0,0,0,0,-1.6385,-1.6393,-1.6393,-1.6404,-1.6409,-1.6415,-1.6421,-1.6421,-1.6426,-1.6426,-1.6428,-1.6429,-1.6438,-1.6441,-1.6437,-1.6452,-1.6448,-1.645,-1.645,-1.6451,-1.6452,-1.6451,-1.6433,0,0,0,0,0,-1.6387,-1.6394,-1.64,-1.6409,-1.6412,-1.6416,-1.642,-1.6421,-1.6426,-1.6429,-1.6432,-1.6437,-1.6444,-1.6448,-1.6454,-1.6464,-1.6465,-1.6469,-1.647,-1.647,-1.6471,-1.6477,-1.6478,-1.6463,-1.6463,-1.6463,0,0,-1.6391,-1.6396,-1.64,-1.641,-1.6414,-1.6421,-1.6418,-1.6425,-1.643,-1.643,-1.6439,-1.6442,-1.6447,-1.6457,-1.6461,-1.646,-1.6476,-1.6471,-1.6472,-1.6472,-1.6478,-1.6479,-1.648,-1.6463,-1.6463,-1.6463,0,0,-1.64,-1.6405,-1.6413,-1.6418,-1.6424,-1.6427,-1.6429,-1.6435,-1.6437,-1.6446,-1.6446,-1.6452,-1.6463,-1.6467,-1.647,-1.6482,-1.6481,-1.6484,-1.6489,-1.6494,-1.6495,-1.6496,-1.65,-1.6501,-1.6484,-1.6484,-1.6484,0,-1.6404,-1.6414,-1.6417,-1.6425,-1.6429,-1.6429,-1.6437,-1.6441,-1.6449,-1.6452,-1.645,-1.6463,-1.6467,-1.6478,-1.6481,-1.6484,-1.6486,-1.6483,-1.6495,-1.6496,-1.6497,-1.65,-1.6502,-1.6485,-1.6485,-1.6485,-1.6485,0,-1.6418,-1.6426,-1.6431,-1.6439,-1.6444,-1.6452,-1.6455,-1.646,-1.6461,-1.6463,-1.6472,-1.6477,-1.6484,-1.6487,-1.6487,-1.6497,-1.6496,-1.6494,-1.649,-1.6499,-1.6502,-1.6503,-1.6485,-1.6485,-1.6485,-1.6485,0,0,-1.6429,-1.6439,-1.6441,-1.6444,-1.6452,-1.6457,-1.6465,-1.6472,-1.6476,-1.6482,-1.6488,-1.6497,-1.6496,-1.6499,-1.6501,-1.6505,-1.6514,-1.6503,-1.6503,-1.6504,-1.6525,-1.6525,-1.6527,-1.6513,-1.6514,-1.6514,-1.6524,0,-1.6439,-1.6453,-1.6455,-1.6467,-1.6474,-1.6474,-1.6481,-1.6486,-1.6489,-1.6494,-1.6497,-1.6504,-1.6502,-1.6504,-1.6509,-1.6512,-1.6518,-1.6511,-1.6518,-1.6519,-1.6517,-1.6529,-1.653,-1.6539,-1.6525,-1.6526,-1.6526,0,-1.6453,-1.6459,-1.6472,-1.6478,-1.6481,-1.6487,-1.6494,-1.65,-1.6505,-1.6507,-1.6511,-1.6512,-1.6519,-1.6515,-1.6526,-1.6521,-1.6524,-1.6526,-1.6527,-1.6527,-1.6522,-1.6529,-1.6542,-1.6544,-1.6528,-1.6528,-1.6528,0,-1.6459,-1.6471,-1.648,-1.6483,-1.6491,-1.6495,-1.6498,-1.6504,-1.6508,-1.6514,-1.6516,-1.6523,-1.6526,-1.6531,-1.6533,-1.653,-1.6543,-1.654,-1.6544,-1.6544,-1.6547,-1.6546,-1.656,-1.6549,-1.6549,-1.6549,-1.6549,0,-1.647,-1.6478,-1.6483,-1.6488,-1.6497,-1.6499,-1.6507,-1.6511,-1.6516,-1.6521,-1.6522,-1.6527,-1.653,-1.6536,-1.6538,-1.6546,-1.6547,-1.6549,-1.6549,-1.6548,-1.6548,-1.655,-1.6549,-1.655,-1.655,-1.655,-1.655,0,-1.6478,-1.6482,-1.6492,-1.6499,-1.65,-1.6506,-1.6512,-1.6517,-1.652,-1.6527,-1.6529,-1.6533,-1.654,-1.6543,-1.6551,-1.6552,-1.6561,-1.6561,-1.656,-1.656,-1.6564,-1.6564,-1.6579,-1.6581,-1.657,-1.657,-1.657,0,-1.6485,-1.6491,-1.6498,-1.6502,-1.6506,-1.6513,-1.6517,-1.652,-1.6524,-1.6531,-1.6535,-1.6542,-1.6548,-1.6559,-1.6562,-1.6568,-1.6568,-1.6574,-1.6569,-1.6569,-1.6568,-1.6568,-1.6568,-1.6574,-1.6574,-1.6574,-1.6574,0,-1.6496,-1.6498,-1.6504,-1.6511,-1.6516,-1.6522,-1.6527,-1.6531,-1.6534,-1.6539,-1.6546,-1.6551,-1.6559,-1.6566,-1.6572,-1.6576,-1.6575,-1.6576,-1.6577,-1.6576,-1.6575,-1.6576,-1.6561,-1.6575,-1.6575,-1.6575,-1.6575,-1.6575,-1.6503,-1.6509,-1.6515,-1.6522,-1.6526,-1.6531,-1.6537,-1.654,-1.6546,-1.6554,-1.6555,-1.6562,-1.6568,-1.6577,-1.658,-1.6586,-1.6584,-1.6586,-1.6587,-1.6587,-1.6587,-1.6575,-1.6587,-1.6587,-1.6587,-1.6587,-1.6587,0,-1.6514,-1.6518,-1.6525,-1.6533,-1.6538,-1.6538,-1.6544,-1.6549,-1.6555,-1.656,-1.6566,-1.6574,-1.6581,-1.6585,-1.6591,-1.6595,-1.6595,-1.6597,-1.6596,-1.6597,-1.6588,-1.6586,-1.6596,-1.6596,-1.6596,-1.6596,-1.6596,-1.6596,-1.6521,-1.6529,-1.6532,-1.6543,-1.6546,-1.6554,-1.6557,-1.6562,-1.6566,-1.6575,-1.6581,-1.6584,-1.6588,-1.6595,-1.6601,-1.6602,-1.6604,-1.6606,-1.6607,-1.6598,-1.6597,-1.6596,-1.6595,-1.6606,-1.6606,-1.6615,-1.6615,-1.6615]},{"header":{"parameterUnit":"m.s-1","parameterCategory":1,"la1":30.2991,"la2":30.254,"lo1":-89.0895,"lo2":-89.0444,"dy":0.0017,"dx":0.0017,"nx":28,"ny":28,"refTime":"2024-04-18T03:00:00:Z","depth":0,"parameterNumber":3,"parameterNumberName":"V-component_of_WINDS"},"data":[0,0,0,0,0,0,0,0,0,0,0,0,0,0,0,0,0,0,0,0,0,0,0,0,0,0,0,0,0,0,0,0,0,0,0,0,0,0,0,0,0,0,0,0,0,0,0,0,0,0,0,0,0,0,0,0,0,0,3.467,3.4671,0,3.4766,3.4767,3.4768,3.4776,3.4775,3.4774,3.4773,3.4867,3.4871,3.4874,0,0,0,0,0,0,0,0,0,0,0,0,0,3.4493,3.4496,3.467,3.4671,3.4672,3.4766,3.4767,3.4768,3.4776,3.4775,3.4773,3.4772,3.4866,3.487,3.4874,0,0,0,0,0,0,0,0,0,0,0,0,0,3.4578,3.4498,3.467,3.4688,3.469,3.4765,3.4767,3.4769,3.4776,3.4775,3.4773,3.4772,3.4865,3.487,3.4875,3.4938,0,0,3.4891,3.4893,0,0,0,0,0,0,0,0,3.4573,3.4584,3.4684,3.4686,3.4689,3.4757,3.4739,3.4825,3.4777,3.4743,3.4773,3.4771,3.4832,3.4839,3.4861,3.4942,3.4946,3.4891,3.4894,3.4897,3.4898,0,0,0,0,0,0,0,3.4567,3.458,3.4708,3.4685,3.4689,3.4691,3.4701,3.4756,3.4795,3.4746,3.4747,3.4758,3.4833,3.4856,3.4863,3.4948,3.4891,3.4896,3.4899,3.4901,3.509,3.5092,0,0,0,0,0,0,3.4558,3.4575,3.4705,3.4711,3.4626,3.4695,3.4707,3.4737,3.4794,3.4802,3.476,3.4758,3.4848,3.4857,3.4866,3.4947,3.4897,3.4902,3.4905,3.5088,3.509,3.5093,0,0,0,0,0,0,3.4554,3.4569,3.4701,3.4643,3.466,3.47,3.4734,3.474,3.4763,3.4805,3.4811,3.4776,3.4847,3.4859,3.4921,3.495,3.4904,3.4909,3.5086,3.5089,3.5091,3.5107,0,0,0,0,0,0,3.4549,3.4568,3.4592,3.4644,3.4663,3.4755,3.4736,3.4743,3.4772,3.4771,3.4822,3.4828,3.4846,3.4914,3.4926,3.4957,3.4913,3.5084,3.5087,3.5091,3.5104,3.511,3.5115,0,0,0,0,0,3.4543,3.4591,3.4593,3.4609,3.4694,3.4756,3.4767,3.4788,3.4774,3.4799,3.4827,3.4827,3.4945,3.492,3.4934,3.4966,3.5082,3.5086,3.509,3.5101,3.5108,3.5115,0,0,0,0,0,0,3.454,3.4598,3.4601,3.4668,3.4707,3.4757,3.4789,3.4794,3.4837,3.4835,3.4858,3.4869,3.4932,3.4955,3.4926,3.5033,3.5012,3.5019,3.5015,3.5022,3.5028,3.5021,3.4917,0,0,0,0,0,3.4547,3.4593,3.4641,3.4695,3.4715,3.4749,3.4776,3.479,3.4831,3.4847,3.4879,3.4918,3.4965,3.4994,3.5039,3.5107,3.5119,3.5136,3.5142,3.5146,3.5153,3.5194,3.5203,3.5107,3.5106,3.5106,0,0,3.4562,3.46,3.4627,3.4696,3.4728,3.4775,3.4763,3.4812,3.4848,3.4854,3.4916,3.4941,3.4987,3.5053,3.5084,3.5075,3.5182,3.5152,3.5155,3.5159,3.5199,3.5208,3.5216,3.5109,3.5109,3.5108,0,0,3.4615,3.4647,3.4697,3.4731,3.4781,3.4803,3.4816,3.4866,3.4884,3.4947,3.4953,3.4996,3.5074,3.5107,3.5135,3.5204,3.5206,3.5217,3.5246,3.5286,3.5294,3.5301,3.5328,3.5337,3.5224,3.5224,3.5224,0,3.4627,3.4699,3.4722,3.4773,3.4804,3.4815,3.4867,3.4897,3.4958,3.498,3.4969,3.5071,3.5101,3.5178,3.5195,3.5216,3.5232,3.5212,3.5291,3.5298,3.5305,3.5331,3.5341,3.5225,3.5225,3.5225,3.5224,0,3.4714,3.4764,3.4798,3.486,3.4895,3.4946,3.4977,3.501,3.5021,3.5045,3.511,3.5148,3.5203,3.5222,3.5231,3.53,3.5293,3.5286,3.5266,3.5315,3.534,3.535,3.5227,3.5226,3.5226,3.5226,0,0,3.4765,3.4842,3.4854,3.4884,3.4942,3.4981,3.5033,3.5088,3.5117,3.5159,3.5205,3.5273,3.5269,3.5299,3.5313,3.5348,3.5404,3.5337,3.5339,3.535,3.5486,3.5492,3.5503,3.5406,3.5408,3.5409,3.5483,0,3.4826,3.4921,3.4945,3.5026,3.5074,3.5086,3.5132,3.5173,3.5198,3.5242,3.5268,3.5318,3.5306,3.5326,3.536,3.539,3.5432,3.5385,3.5449,3.5452,3.544,3.5516,3.5522,3.559,3.5492,3.5494,3.5495,0,3.4909,3.4957,3.5043,3.5098,3.5119,3.516,3.5215,3.5257,3.5304,3.5319,3.5356,3.5367,3.5423,3.54,3.5479,3.5446,3.5474,3.5493,3.5496,3.5504,3.5477,3.5528,3.5611,3.5622,3.5511,3.5509,3.5508,0,3.4942,3.5027,3.5091,3.5116,3.518,3.521,3.5238,3.5283,3.5316,3.5363,3.5385,3.5437,3.5466,3.5506,3.5532,3.5512,3.561,3.5588,3.5625,3.5625,3.5646,3.5645,3.5737,3.5661,3.566,3.566,3.566,0,3.5008,3.5061,3.5107,3.5147,3.5208,3.5235,3.5294,3.5322,3.5363,3.5409,3.5421,3.5464,3.5494,3.5541,3.5561,3.5625,3.5637,3.5652,3.5657,3.5652,3.5651,3.5672,3.5669,3.5663,3.5662,3.5662,3.5661,0,3.5055,3.5087,3.5159,3.5215,3.5231,3.5273,3.5322,3.5361,3.5387,3.5445,3.546,3.5501,3.5557,3.5587,3.5656,3.567,3.5742,3.5743,3.5727,3.573,3.5767,3.5764,3.5877,3.5895,3.5805,3.5806,3.5806,0,3.5096,3.5138,3.52,3.5233,3.5262,3.5313,3.5348,3.5377,3.5413,3.5472,3.5504,3.5562,3.5609,3.5699,3.5734,3.5788,3.5792,3.5828,3.58,3.5795,3.5796,3.5794,3.58,3.5834,3.5834,3.5835,3.5836,0,3.5166,3.5181,3.5231,3.5289,3.5331,3.5376,3.5421,3.5447,3.5483,3.5523,3.5582,3.5619,3.5692,3.575,3.5807,3.5836,3.5843,3.5844,3.5857,3.5853,3.5843,3.5852,3.5743,3.5842,3.5841,3.5841,3.584,3.584,3.5213,3.5252,3.5304,3.536,3.5398,3.5441,3.5482,3.5515,3.5565,3.5628,3.5642,3.5705,3.5753,3.5832,3.5862,3.5912,3.5905,3.5921,3.5926,3.5931,3.5934,3.5834,3.5922,3.5922,3.5922,3.5922,3.5922,0,3.5287,3.5321,3.5373,3.5438,3.5483,3.5487,3.5538,3.5575,3.5631,3.5677,3.5725,3.5794,3.5851,3.5892,3.595,3.5983,3.5987,3.5997,3.5996,3.6003,3.5936,3.5921,3.5993,3.5993,3.5993,3.5993,3.5992,3.5992,3.533,3.5398,3.542,3.5508,3.5542,3.5605,3.5635,3.5675,3.5712,3.579,3.5838,3.5865,3.591,3.5972,3.6025,3.6035,3.6057,3.6067,3.6078,3.6015,3.6007,3.6,3.5987,3.6071,3.6071,3.6142,3.6143,3.6143]}]]